Latest Coastal Weather Observations for Cape Otway

IDV60701

Issued at 4:41 pm EDT Tuesday 27 January 2015 (issued every 10 minutes, with the page automatically refreshed every 10 minutes)

About coastal observations | Map of coastal stations | Coastal observations for VIC | Marine services | Other Formats
Station Details ID: 090015 Name: CAPE OTWAY LIGHTHOUSE Lat: -38.86 Lon: 143.51 Height: 82.0 m
Data from the previous 72 hours. | See also: Recent months at Cape Otway
Date/Time
EDT
Temp

°C
Wind Pressure Rain
since 9am
mm
Weather Cloud Vis
km
Sea
Height
m
Swell
Dir
 
Speed
knots
Gust
knots
hPa Trend Height
m
Period
s
Dir
27/04:30pm 16.3 SW 8 13 1018.8 - 0.0 - - - - - - -
27/04:00pm 15.9 SW 7 11 1018.8 - 0.0 - - - - - - -
27/03:30pm 16.2 SSE 5 8 1019.0 - 0.0 - - - - - - -
27/03:00pm 16.1 SE 4 5 1018.8 - 0.0 - - - - - - -
27/02:30pm 15.2 NE 4 6 1019.1 - 0.0 - - - - - - -
27/02:00pm 15.3 SSE 4 5 1019.3 - 0.0 - - - - - - -
27/01:30pm 14.8 SSW 4 6 1019.5 - 0.0 - - - - - - -
27/01:00pm 15.3 SW 5 9 1019.3 - 0.0 - - - - - - -
27/12:30pm 14.3 SW 9 12 1019.3 - 0.0 - - - - - - -
27/12:00pm 14.4 SW 9 14 1019.1 - 0.0 - - - - - - -
27/11:30am 14.7 SW 8 14 1019.3 - 0.0 - - - - - - -
27/11:00am 18.2 SSE 5 9 1019.3 - 0.0 - - - - - - -
27/10:30am 16.1 S 4 8 1019.2 - 0.0 - - - - - - -
27/10:00am 15.1 SW 3 5 1019.3 - 0.0 - - - - - - -
27/09:30am 14.8 SW 4 8 1019.1 - 0.0 - - - - - - -
27/09:00am 14.8 SW 4 9 1018.8 - 0.0 - - - - - - -
27/08:30am 14.6 SW 5 7 1018.6 - 0.0 - - - - - - -
27/08:00am 15.3 S 4 8 1018.4 - 0.0 - - - - - - -
27/07:30am 14.8 SSE 4 7 1018.0 - 0.0 - - - - - - -
27/07:00am 14.2 ESE 4 7 1017.8 - 0.0 - - - - - - -
27/06:30am 13.2 SSW 3 6 1017.6 - 0.0 - - - - - - -
27/06:00am 13.3 SSE 4 7 1017.3 - 0.0 - - - - - - -
27/05:30am 13.5 S 4 8 1017.5 - 0.0 - - - - - - -
27/05:00am 13.5 SW 4 6 1017.5 - 0.0 - - - - - - -
27/04:30am 13.5 W 4 7 1017.6 - 0.0 - - - - - - -
27/04:00am 13.5 WSW 4 6 1017.7 - 0.0 - - - - - - -
27/03:30am 13.5 WSW 4 6 1017.8 - 0.0 - - - - - - -
27/03:00am 13.7 SW 4 7 1017.8 - 0.0 - - - - - - -
27/02:30am 13.7 W 4 6 1018.0 - 0.0 - - - - - - -
27/02:00am 13.8 W 4 6 1018.1 - 0.0 - - - - - - -
27/01:30am 13.8 SW 4 7 1018.2 - 0.0 - - - - - - -
27/01:00am 13.7 W 4 6 1018.3 - 0.0 - - - - - - -
27/12:30am 13.6 SW 4 9 1018.4 - 0.0 - - - - - - -
27/12:00am 13.6 N 3 8 1018.4 - 0.0 - - - - - - -
 
Date/Time
EDT
Temp

°C
Wind Pressure Rain
since 9am
mm
Weather Cloud Vis
km
Sea
Height
m
Swell
Dir
 
Speed
knots
Gust
knots
hPa Trend Height
m
Period
s
Dir
26/11:30pm 13.7 SSE 3 7 1018.8 - 0.0 - - - - - - -
26/11:00pm 13.9 SW 4 7 1019.0 - 0.0 - - - - - - -
26/10:30pm 13.9 SW 5 7 1019.1 - 0.0 - - - - - - -
26/10:00pm 13.7 SW 3 6 1019.1 - 0.0 - - - - - - -
26/09:30pm 13.9 SW 4 6 1019.0 - 0.0 - - - - - - -
26/09:00pm 13.9 SW 5 7 1018.5 - 0.0 - - - - - - -
26/08:30pm 14.5 SW 4 7 1018.5 - 0.0 - - - - - - -
26/08:00pm 15.1 SSW 5 8 1018.4 - 0.0 - - - - - - -
26/07:30pm 16.5 S 4 8 1018.2 - 0.0 - - - - - - -
26/07:00pm 16.0 SW 6 9 1017.8 - 0.0 - - - - - - -
26/06:30pm 16.4 SSW 6 9 1017.7 - 0.0 - - - - - - -
26/06:00pm 16.6 SSW 6 9 1017.5 - 0.0 - - - - - - -
26/05:30pm 16.4 SSW 7 11 1017.8 - 0.0 - - - - - - -
26/05:00pm 16.9 SSW 7 10 1018.0 - 0.0 - - - - - - -
26/04:30pm 17.1 SSW 8 11 1018.2 - 0.0 - - - - - - -
26/04:00pm 17.3 SSW 7 9 1017.9 - 0.0 - - - - - - -
26/03:30pm 16.4 SSW 8 13 1018.0 - 0.0 - - - - - - -
26/03:00pm 16.5 SSW 8 14 1017.8 - 0.0 - - - - - - -
26/02:30pm 16.8 SSW 9 12 1017.9 - 0.0 - - - - - - -
26/02:00pm 16.9 SSW 8 13 1018.1 - 0.0 - - - - - - -
26/01:30pm 17.0 SSW 7 13 1018.1 - 0.0 - - - - - - -
26/01:00pm 16.9 SSW 7 10 1018.1 - 0.0 - - - - - - -
26/12:30pm 16.8 SSW 8 13 1018.1 - 0.0 - - - - - - -
26/12:00pm 16.3 SSW 8 11 1017.9 - 0.0 - - - - - - -
26/11:30am 16.1 SSW 8 11 1018.2 - 0.0 - - - - - - -
26/11:00am 16.2 SSW 6 11 1018.2 - 0.0 - - - - - - -
26/10:30am 15.9 SSW 8 12 1018.0 - 0.0 - - - - - - -
26/10:00am 16.2 SSW 6 8 1017.6 - 0.0 - - - - - - -
26/09:30am 15.9 SSW 6 9 1017.5 - 0.0 - - - - - - -
26/09:00am 14.7 SSW 7 11 1017.1 - 3.0 - - - - - - -
26/08:30am 14.4 SW 9 12 1017.0 - 3.0 - - - - - - -
26/08:00am 14.4 SSW 9 11 1016.6 - 3.0 - - - - - - -
26/07:30am 13.9 SSW 8 11 1016.3 - 3.0 - - - - - - -
26/07:00am 13.8 SW 10 15 1015.7 - 3.0 - - - - - - -
26/06:30am 13.5 SSW 10 15 1015.3 - 3.0 - - - - - - -
26/06:00am 13.4 SSW 10 14 1014.7 - 3.0 - - - - - - -
26/05:30am 13.5 SW 11 15 1014.4 - 3.0 - - - - - - -
26/05:00am 13.4 SW 9 13 1014.3 - 3.0 - - - - - - -
26/04:30am 13.6 SW 11 16 1014.2 - 3.0 - - - - - - -
26/04:00am 13.6 SW 12 17 1013.9 - 3.0 - - - - - - -
26/03:30am 13.5 SSW 10 15 1013.9 - 3.0 - - - - - - -
26/03:00am 13.5 SW 10 18 1013.6 - 3.0 - - - - - - -
26/02:30am 13.0 SSW 15 21 1013.7 - 3.0 - - - - - - -
26/02:00am 13.4 WSW 14 21 1013.7 - 3.0 - - - - - - -
26/01:30am 13.4 SW 11 15 1013.7 - 3.0 - - - - - - -
26/01:00am 13.5 SW 13 17 1013.5 - 3.0 - - - - - - -
26/12:30am 13.7 SW 13 19 1013.5 - 3.0 - - - - - - -
26/12:00am 13.5 WSW 11 15 1013.3 - 3.0 - - - - - - -
 
Date/Time
EDT
Temp

°C
Wind Pressure Rain
since 9am
mm
Weather Cloud Vis
km
Sea
Height
m
Swell
Dir
 
Speed
knots
Gust
knots
hPa Trend Height
m
Period
s
Dir
25/11:30pm 13.6 SW 16 21 1013.3 - 3.0 - - - - - - -
25/11:00pm 13.3 WSW 9 14 1013.4 - 3.0 - - - - - - -
25/10:30pm 12.8 SW 14 22 1013.2 - 3.0 - - - - - - -
25/10:13pm 12.1 WSW 11 14 1013.1 - 3.0 - - - - - - -
25/10:00pm 12.1 SSW 18 34 1012.9 - 2.8 - - - - - - -
25/09:58pm 12.3 SSW 23 34 1012.8 - 2.6 - - - - - - -
25/09:57pm 12.0 SSW 20 34 1012.8 - 2.6 - - - - - - -
25/09:56pm 13.8 WSW 15 32 1012.7 - 2.4 - - - - - - -
25/09:54pm 13.8 SW 20 32 1012.7 - 2.4 - - - - - - -
25/09:30pm 13.4 W 16 22 1012.6 - 2.4 - - - - - - -
25/09:00pm 14.3 WSW 15 21 1011.9 - 2.4 - - - - - - -
25/08:32pm 14.4 WSW 16 26 1011.9 - 2.4 - - - - - - -
25/08:30pm 14.4 WSW 16 26 1011.9 - 2.4 - - - - - - -
25/08:19pm 14.4 WSW 16 26 1011.8 - 2.4 - - - - - - -
25/08:17pm 14.4 WSW 16 26 1011.8 - 2.4 - - - - - - -
25/08:00pm 14.6 WSW 16 25 1011.7 - 2.4 - - - - - - -
25/07:30pm 14.7 W 18 25 1011.4 - 2.4 - - - - - - -
25/07:00pm 14.8 W 17 23 1011.2 - 2.4 - - - - - - -
25/06:30pm 15.4 W 19 28 1010.9 - 2.2 - - - - - - -
25/06:06pm 15.0 W 20 30 1010.7 - 2.2 - - - - - - -
25/06:00pm 15.4 W 19 25 1010.4 - 2.2 - - - - - - -
25/05:54pm 15.4 W 20 30 1010.6 - 2.2 - - - - - - -
25/05:52pm 15.4 W 20 30 1010.6 - 2.2 - - - - - - -
25/05:30pm 15.5 W 20 28 1010.5 - 2.2 - - - - - - -
25/05:00pm 14.4 W 19 26 1010.2 - 2.2 - - - - - - -
25/04:50pm 14.7 W 20 30 1010.2 - 2.2 - - - - - - -
25/04:48pm 14.7 W 20 30 1010.2 - 2.2 - - - - - - -
25/04:30pm 15.3 W 20 28 1010.2 - 2.2 - - - - - - -
25/04:13pm 15.0 W 20 31 1010.1 - 2.2 - - - - - - -
25/04:11pm 15.0 W 20 31 1010.1 - 2.2 - - - - - - -
25/04:00pm 15.4 W 23 30 1010.1 - 2.2 - - - - - - -
25/03:30pm 14.1 WSW 26 43 1009.8 - 2.2 - - - - - - -
25/03:29pm 13.9 WSW 24 43 1009.5 - 2.2 - - - - - - -
25/03:27pm 13.9 WSW 24 43 1009.5 - 2.2 - - - - - - -
25/03:00pm 15.4 W 19 31 1009.3 - 2.2 - - - - - - -
25/02:37pm 15.6 W 22 32 1009.3 - 2.2 - - - - - - -
25/02:35pm 15.6 W 22 32 1009.3 - 2.2 - - - - - - -
25/02:30pm 15.2 W 22 29 1009.3 - 2.2 - - - - - - -
25/02:02pm 13.5 W 22 33 1009.2 - 2.2 - - - - - - -
25/02:00pm 13.5 W 22 33 1009.2 - 2.2 - - - - - - -
25/01:30pm 14.2 W 24 31 1008.9 - 2.2 - - - - - - -
25/01:03pm 12.2 W 21 31 1008.9 - 2.2 - - - - - - -
25/01:01pm 12.2 W 21 31 1008.9 - 2.2 - - - - - - -
25/01:00pm 11.9 W 22 31 1008.9 - 2.2 - - - - - - -
25/12:48pm 13.9 W 21 32 1008.6 - 0.4 - - - - - - -
25/12:46pm 13.9 W 21 32 1008.6 - 0.4 - - - - - - -
25/12:30pm 15.7 W 21 30 1008.4 - 0.2 - - - - - - -
25/12:00pm 14.1 W 25 35 1007.9 - 0.2 - - - - - - -
25/11:56am 15.4 W 23 34 1008.1 - 0.2 - - - - - - -
25/11:54am 15.4 W 23 34 1008.1 - 0.2 - - - - - - -
25/11:30am 15.9 W 22 31 1007.8 - 0.2 - - - - - - -
25/11:00am 15.3 W 22 29 1007.6 - 0.2 - - - - - - -
25/10:31am 14.5 W 20 31 1007.2 - 0.0 - - - - - - -
25/10:30am 14.5 W 21 31 1007.3 - 0.0 - - - - - - -
25/10:29am 14.5 W 20 31 1007.2 - 0.0 - - - - - - -
25/10:00am 14.5 W 20 28 1007.0 - 0.0 - - - - - - -
25/09:43am 14.1 W 19 29 1006.7 - 0.0 - - - - - - -
25/09:30am 14.4 W 19 26 1006.6 - 0.0 - - - - - - -
25/09:11am 15.0 W 20 30 1006.4 - 0.0 - - - - - - -
25/09:08am 15.0 W 20 30 1006.4 - 0.0 - - - - - - -
25/09:00am 14.5 W 20 28 1006.1 - 8.6 - - - - - - -
25/08:30am 14.2 W 18 25 1005.9 - 8.6 - - - - - - -
25/08:00am 13.9 WSW 20 28 1005.6 - 8.6 - - - - - - -
25/07:31am 14.4 W 20 30 1005.1 - 8.6 - - - - - - -
25/07:30am 14.3 W 21 30 1005.1 - 8.6 - - - - - - -
25/07:08am 13.9 WSW 19 29 1004.9 - 8.6 - - - - - - -
25/07:03am 13.8 WSW 20 30 1004.8 - 8.6 - - - - - - -
25/07:00am 13.9 WSW 22 30 1004.8 - 8.6 - - - - - - -
25/06:49am 14.1 W 20 33 1004.7 - 8.6 - - - - - - -
25/06:47am 14.1 W 20 33 1004.7 - 8.6 - - - - - - -
25/06:30am 14.2 W 19 26 1004.5 - 8.6 - - - - - - -
25/06:00am 14.3 W 19 26 1003.8 - 8.6 - - - - - - -
25/05:30am 14.3 W 20 26 1003.7 - 8.6 - - - - - - -
25/05:00am 14.1 WSW 18 26 1003.5 - 8.6 - - - - - - -
25/04:39am 13.7 WSW 17 27 1003.4 - 8.6 - - - - - - -
25/04:30am 13.6 WSW 22 31 1003.3 - 8.6 - - - - - - -
25/04:20am 14.3 W 15 27 1003.2 - 8.6 - - - - - - -
25/04:18am 14.3 W 15 27 1003.2 - 8.6 - - - - - - -
25/04:00am 13.5 W 16 23 1003.5 - 8.6 - - - - - - -
25/03:30am 13.7 W 19 26 1003.3 - 8.4 - - - - - - -
25/03:18am 13.3 W 15 25 1003.3 - 8.0 - - - - - - -
25/03:16am 13.4 W 15 25 1003.3 - 8.0 - - - - - - -
25/03:04am 13.5 WSW 21 26 1003.2 - 7.6 - - - - - - -
25/03:00am 13.6 W 16 24 1002.9 - 6.6 - - - - - - -
25/02:30am 13.8 W 15 21 1003.3 - 5.6 - - - - - - -
25/02:00am 13.5 W 22 29 1003.2 - 4.6 - - - - - - -
25/01:30am 13.7 W 22 32 1002.8 - 2.0 - - - - - - -
25/01:14am 15.5 WNW 15 28 1002.7 - 0.4 - - - - - - -
25/01:13am 15.2 WNW 15 28 1002.7 - 0.4 - - - - - - -
25/01:00am 15.7 W 14 22 1003.1 - 0.0 - - - - - - -
25/12:30am 16.6 WNW 14 19 1003.5 - 0.0 - - - - - - -
25/12:00am 16.8 WNW 14 21 1003.5 - 0.0 - - - - - - -
 
Date/Time
EDT
Temp

°C
Wind Pressure Rain
since 9am
mm
Weather Cloud Vis
km
Sea
Height
m
Swell
Dir
 
Speed
knots
Gust
knots
hPa Trend Height
m
Period
s
Dir
24/11:30pm 16.9 WNW 14 21 1003.9 - 0.0 - - - - - - -
24/11:00pm 17.1 WNW 12 18 1004.0 - 0.0 - - - - - - -
24/10:36pm 17.4 W 15 25 1003.8 - 0.0 - - - - - - -
24/10:34pm 17.4 W 15 25 1003.8 - 0.0 - - - - - - -
24/10:30pm 17.5 W 16 25 1003.7 - 0.0 - - - - - - -
24/10:23pm 17.9 W 15 23 1003.6 - 0.0 - - - - - - -
24/10:19pm 17.9 W 18 23 1003.6 - 0.0 - - - - - - -
24/10:00pm 17.4 WNW 8 12 1003.6 - 0.0 - - - - - - -
24/09:30pm 17.6 WNW 10 14 1003.2 - 0.0 - - - - - - -
24/09:00pm 17.5 WNW 9 12 1002.7 - 0.0 - - - - - - -
24/08:30pm 17.9 WNW 8 13 1002.7 - 0.0 - - - - - - -
24/08:00pm 18.6 WNW 12 15 1002.6 - 0.0 - - - - - - -
24/07:30pm 18.8 WNW 11 16 1002.4 - 0.0 - - - - - - -
24/07:00pm 19.0 WNW 11 15 1002.4 - 0.0 - - - - - - -
24/06:30pm 19.0 WNW 10 14 1002.6 - 0.0 - - - - - - -
24/06:00pm 19.0 W 12 16 1002.7 - 0.0 - - - - - - -
24/05:30pm 19.6 W 12 17 1003.2 - 0.0 - - - - - - -
24/05:00pm 19.4 WSW 10 12 1003.2 - 0.0 - - - - - - -

Other Formats:

Comma delimited format used in spreadsheet applications
http://www.bom.gov.au/fwo/IDV60701/IDV60701.94842.axf

JavaScript Object Notation format (JSON) in row-major order
http://www.bom.gov.au/fwo/IDV60701/IDV60701.94842.json